TimeMST,TemperatureF,Dew PointF,Humidity,Sea Level PressureIn,VisibilityMPH,Wind Direction,Wind SpeedMPH,Gust SpeedMPH,PrecipitationIn,Events,Conditions,WindDirDegrees,DateUTC
12:53 AM,25.0,5.0,43,30.15,10.0,West,19.6,29.9,N/A,,Clear,260,2011-11-17 07:53:00
1:53 AM,26.1,3.9,39,30.13,10.0,WSW,20.7,28.8,N/A,,Clear,250,2011-11-17 08:53:00
2:53 AM,25.0,3.9,41,30.12,10.0,WSW,20.7,-,N/A,,Clear,250,2011-11-17 09:53:00
3:53 AM,24.1,5.0,44,30.11,10.0,SW,20.7,24.2,N/A,,Clear,220,2011-11-17 10:53:00
4:53 AM,26.1,3.9,39,30.13,10.0,SSW,20.7,-,N/A,,Clear,200,2011-11-17 11:53:00
5:53 AM,28.9,1.9,32,30.08,10.0,SSW,23.0,35.7,N/A,,Clear,210,2011-11-17 12:53:00
6:53 AM,28.9,3.0,33,30.07,10.0,SW,16.1,28.8,N/A,,Clear,220,2011-11-17 13:53:00
7:53 AM,30.2,3.2,32,30.01,10.0,WSW,25.3,31.1,N/A,,Clear,240,2011-11-17 14:53:00
8:53 AM,34.0,6.1,31,30.03,10.0,WSW,24.2,32.2,N/A,,Clear,250,2011-11-17 15:53:00
9:53 AM,35.6,6.8,30,29.98,10.0,WSW,27.6,33.4,N/A,,Clear,240,2011-11-17 16:53:00
10:53 AM,43.0,10.0,26,29.93,10.0,WSW,25.3,29.9,N/A,,Clear,240,2011-11-17 17:53:00
11:53 AM,41.0,12.0,31,29.94,10.0,SW,18.4,27.6,N/A,,Scattered Clouds,220,2011-11-17 18:53:00
12:53 PM,45.0,14.0,29,29.89,10.0,SSW,17.3,26.5,N/A,,Overcast,210,2011-11-17 19:53:00
1:53 PM,42.1,14.0,32,29.88,10.0,West,6.9,17.3,N/A,,Overcast,260,2011-11-17 20:53:00
2:53 PM,44.1,15.1,31,29.83,10.0,SW,18.4,-,N/A,,Partly Cloudy,230,2011-11-17 21:53:00
4:53 PM,37.0,15.1,41,29.84,10.0,SW,16.1,-,N/A,,Clear,230,2011-11-17 23:53:00
5:53 PM,30.9,16.0,54,29.86,10.0,SSW,11.5,-,N/A,,Clear,200,2011-11-18 00:53:00
6:53 PM,35.1,15.1,44,29.81,10.0,South,16.1,-,N/A,,Clear,190,2011-11-18 01:53:00
7:53 PM,34.0,15.1,46,29.79,10.0,SSW,15.0,-,N/A,,Clear,210,2011-11-18 02:53:00
8:53 PM,33.1,14.0,46,29.75,10.0,South,8.1,-,N/A,,Clear,190,2011-11-18 03:53:00
9:53 PM,36.0,14.0,41,29.73,10.0,WSW,11.5,-,N/A,,Clear,240,2011-11-18 04:53:00
10:53 PM,34.0,14.0,44,29.67,10.0,South,12.7,-,N/A,,Clear,190,2011-11-18 05:53:00
11:53 PM,37.9,16.0,41,29.63,10.0,WSW,25.3,36.8,N/A,,Clear,250,2011-11-18 06:53:00